| time (UTC) | temp C | wind direction | speed KPH | gust KPH | rain 1hr cm | rain 24hr cm | rain mn cm | humidity % | barometer mb |
| 20260508141043 | 6 | 298 | 14.5 | 20.9 | 0.00 | 0.00 | 0.00 | 96 | 1018.2 |
| 20260508140543 | 6 | 298 | 12.9 | 19.3 | 0.00 | 0.00 | 0.00 | 96 | 1018.2 |
| 20260508140103 | 6 | 316 | 12.9 | 19.3 | 0.00 | 0.00 | 0.00 | 96 | 1018.1 |
| 20260508135544 | 6 | 300 | 11.3 | 16.1 | 0.00 | 0.00 | 0.00 | 96 | 1018.2 |
| 20260508135043 | 6 | 299 | 8.0 | 17.7 | 0.00 | 0.00 | 0.00 | 96 | 1018.1 |
| 20260508134555 | 6 | 300 | 11.3 | 22.5 | 0.00 | 0.00 | 0.00 | 96 | 1018.0 |
| 20260508134044 | 6 | 296 | 14.5 | 22.5 | 0.00 | 0.00 | 0.00 | 96 | 1018.0 |
| 20260508133543 | 6 | 315 | 12.9 | 22.5 | 0.00 | 0.00 | 0.00 | 96 | 1018.0 |
| 20260508133051 | 6 | 312 | 14.5 | 20.9 | 0.00 | 0.00 | 0.00 | 96 | 1017.9 |
| 20260508132546 | 6 | 311 | 14.5 | 22.5 | 0.00 | 0.00 | 0.00 | 96 | 1017.8 |
| 20260508132043 | 6 | 304 | 12.9 | 22.5 | 0.00 | 0.00 | 0.00 | 96 | 1017.7 |
| 20260508131552 | 6 | 311 | 14.5 | 20.9 | 0.00 | 0.00 | 0.00 | 96 | 1017.7 |
| 20260508131044 | 6 | 299 | 16.1 | 20.9 | 0.00 | 0.00 | 0.00 | 96 | 1017.7 |
| 20260508130544 | 6 | 298 | 11.3 | 17.7 | 0.00 | 0.00 | 0.00 | 96 | 1017.6 |
| 20260508130050 | 6 | 296 | 8.0 | 14.5 | 0.00 | 0.00 | 0.00 | 96 | 1017.6 |
| 20260508125544 | 6 | 296 | 9.7 | 14.5 | 0.00 | 0.00 | 0.00 | 96 | 1017.6 |
| 20260508125043 | 6 | 299 | 8.0 | 12.9 | 0.00 | 0.00 | 0.00 | 96 | 1017.6 |
| 20260508124552 | 6 | 299 | 4.8 | 11.3 | 0.00 | 0.00 | 0.00 | 96 | 1017.6 |
| 20260508124046 | 6 | 302 | 6.4 | 11.3 | 0.00 | 0.00 | 0.00 | 96 | 1017.6 |
| 20260508123543 | 6 | 299 | 4.8 | 14.5 | 0.00 | 0.00 | 0.00 | 96 | 1017.6 |
| 20260508123051 | 6 | 302 | 4.8 | 17.7 | 0.00 | 0.00 | 0.00 | 96 | 1017.7 |
| 20260508122545 | 6 | 301 | 8.0 | 17.7 | 0.00 | 0.00 | 0.00 | 96 | 1017.7 |
| 20260508122043 | 6 | 301 | 11.3 | 17.7 | 0.00 | 0.00 | 0.00 | 96 | 1017.7 |
| 20260508121548 | 6 | 295 | 12.9 | 19.3 | 0.00 | 0.00 | 0.00 | 96 | 1017.7 |
| 20260508121042 | 6 | 311 | 12.9 | 19.3 | 0.00 | 0.00 | 0.00 | 96 | 1017.8 |
| 20260508120544 | 6 | 304 | 11.3 | 17.7 | 0.00 | 0.00 | 0.00 | 96 | 1017.8 |
| 20260508120052 | 6 | 287 | 11.3 | 17.7 | 0.00 | 0.00 | 0.00 | 96 | 1017.9 |
| 20260508115545 | 6 | 296 | 8.0 | 19.3 | 0.00 | 0.00 | 0.00 | 96 | 1017.8 |
| 20260508115043 | 6 | 319 | 9.7 | 19.3 | 0.00 | 0.00 | 0.00 | 96 | 1017.7 |
| 20260508114604 | 6 | 305 | 11.3 | 19.3 | 0.00 | 0.00 | 0.00 | 96 | 1017.7 |
| 20260508114043 | 6 | 292 | 11.3 | 19.3 | 0.00 | 0.00 | 0.00 | 96 | 1017.7 |
| 20260508113544 | 6 | 303 | 14.5 | 19.3 | 0.00 | 0.00 | 0.00 | 96 | 1017.5 |
| 20260508113107 | 6 | 303 | 11.3 | 16.1 | 0.00 | 0.00 | 0.00 | 96 | 1017.5 |
| 20260508112546 | 6 | 300 | 9.7 | 16.1 | 0.00 | 0.00 | 0.00 | 96 | 1017.5 |
| 20260508112044 | 6 | 306 | 8.0 | 14.5 | 0.00 | 0.00 | 0.00 | 96 | 1017.5 |
| 20260508111600 | 6 | 300 | 9.7 | 14.5 | 0.00 | 0.00 | 0.00 | 96 | 1017.6 |
| 20260508111043 | 6 | 315 | 9.7 | 19.3 | 0.00 | 0.00 | 0.00 | 96 | 1017.7 |
| 20260508110545 | 6 | 292 | 9.7 | 19.3 | 0.00 | 0.00 | 0.00 | 96 | 1017.8 |
| 20260508110051 | 6 | 302 | 11.3 | 17.7 | 0.00 | 0.00 | 0.00 | 96 | 1017.8 |
| 20260508105546 | 6 | 301 | 9.7 | 17.7 | 0.00 | 0.00 | 0.00 | 96 | 1017.8 |
| 20260508105042 | 6 | 307 | 9.7 | 17.7 | 0.00 | 0.00 | 0.00 | 96 | 1017.9 |
| 20260508104553 | 6 | 296 | 9.7 | 17.7 | 0.00 | 0.00 | 0.00 | 95 | 1017.8 |
| 20260508104044 | 6 | 298 | 8.0 | 14.5 | 0.00 | 0.00 | 0.00 | 95 | 1017.8 |
| 20260508103549 | 6 | 315 | 9.7 | 16.1 | 0.00 | 0.00 | 0.00 | 95 | 1017.8 |
| 20260508103050 | 6 | 294 | 8.0 | 17.7 | 0.00 | 0.00 | 0.00 | 95 | 1017.7 |
| 20260508102543 | 6 | 295 | 11.3 | 17.7 | 0.00 | 0.00 | 0.00 | 95 | 1017.8 |
| 20260508102044 | 6 | 322 | 11.3 | 17.7 | 0.00 | 0.00 | 0.00 | 95 | 1017.8 |
| 20260508101553 | 6 | 300 | 11.3 | 16.1 | 0.00 | 0.00 | 0.00 | 95 | 1017.8 |
| 20260508101045 | 6 | 291 | 9.7 | 16.1 | 0.00 | 0.00 | 0.00 | 95 | 1017.7 |
| 20260508100547 | 6 | 315 | 8.0 | 14.5 | 0.00 | 0.00 | 0.00 | 95 | 1017.7 |
| 20260508100217 | 6 | 300 | 9.7 | 14.5 | 0.00 | 0.00 | 0.00 | 95 | 1017.7 |
| 20260508095544 | 6 | 298 | 8.0 | 14.5 | 0.00 | 0.00 | 0.00 | 95 | 1017.7 |
| 20260508095042 | 6 | 301 | 8.0 | 14.5 | 0.00 | 0.00 | 0.00 | 95 | 1017.7 |
| 20260508094553 | 6 | 297 | 3.2 | 6.4 | 0.00 | 0.00 | 0.00 | 95 | 1017.7 |
| 20260508094047 | 6 | 297 | 4.8 | 8.0 | 0.00 | 0.00 | 0.00 | 95 | 1017.7 |
| 20260508093543 | 6 | 296 | 4.8 | 8.0 | 0.00 | 0.00 | 0.00 | 95 | 1017.6 |
| 20260508093051 | 6 | 300 | 4.8 | 8.0 | 0.00 | 0.00 | 0.00 | 95 | 1017.6 |
| 20260508092543 | 6 | 304 | 4.8 | 8.0 | 0.00 | 0.00 | 0.00 | 95 | 1017.6 |
| 20260508092042 | 6 | 306 | 4.8 | 6.4 | 0.00 | 0.00 | 0.00 | 95 | 1017.6 |
| 20260508091604 | 6 | 306 | 4.8 | 6.4 | 0.00 | 0.00 | 0.00 | 95 | 1017.7 |
| 20260508091043 | 6 | 306 | 3.2 | 8.0 | 0.00 | 0.00 | 0.00 | 95 | 1017.7 |
| 20260508090543 | 6 | 306 | 3.2 | 8.0 | 0.00 | 0.00 | 0.00 | 95 | 1017.6 |
| 20260508090047 | 6 | 306 | 4.8 | 8.0 | 0.00 | 0.00 | 0.00 | 95 | 1017.7 |
| 20260508085543 | 7 | 300 | 4.8 | 12.9 | 0.00 | 0.00 | 0.00 | 95 | 1017.7 |
| 20260508085042 | 7 | 315 | 4.8 | 12.9 | 0.00 | 0.00 | 0.00 | 95 | 1017.7 |
| 20260508084548 | 7 | 304 | 6.4 | 12.9 | 0.00 | 0.00 | 0.00 | 95 | 1017.8 |
| 20260508084044 | 7 | 303 | 4.8 | 11.3 | 0.00 | 0.00 | 0.00 | 95 | 1017.8 |
| 20260508083543 | 7 | 306 | 4.8 | 14.5 | 0.00 | 0.00 | 0.00 | 95 | 1017.8 |
| 20260508083106 | 7 | 300 | 6.4 | 14.5 | 0.00 | 0.00 | 0.00 | 95 | 1017.8 |
| 20260508082543 | 7 | 298 | 8.0 | 12.9 | 0.00 | 0.00 | 0.00 | 95 | 1017.8 |
| 20260508082047 | 7 | 305 | 6.4 | 14.5 | 0.00 | 0.00 | 0.00 | 95 | 1017.8 |
| 20260508081556 | 7 | 299 | 4.8 | 14.5 | 0.00 | 0.00 | 0.00 | 95 | 1018.0 |
| 20260508081046 | 7 | 312 | 8.0 | 17.7 | 0.00 | 0.00 | 0.00 | 95 | 1018.0 |
| 20260508080543 | 7 | 318 | 8.0 | 17.7 | 0.00 | 0.00 | 0.00 | 95 | 1018.0 |
| 20260508080048 | 7 | 306 | 9.7 | 17.7 | 0.00 | 0.00 | 0.00 | 95 | 1017.9 |
| 20260508075543 | 7 | 298 | 9.7 | 16.1 | 0.00 | 0.00 | 0.00 | 95 | 1018.0 |
| 20260508075042 | 7 | 300 | 8.0 | 12.9 | 0.00 | 0.00 | 0.00 | 95 | 1018.0 |
| 20260508074548 | 7 | 298 | 6.4 | 12.9 | 0.00 | 0.00 | 0.00 | 95 | 1017.9 |
| 20260508074042 | 7 | 304 | 6.4 | 16.1 | 0.00 | 0.00 | 0.00 | 95 | 1017.9 |
| 20260508073544 | 7 | 304 | 6.4 | 17.7 | 0.00 | 0.00 | 0.00 | 95 | 1018.0 |
| 20260508073057 | 7 | 316 | 9.7 | 17.7 | 0.00 | 0.00 | 0.00 | 95 | 1018.0 |
| 20260508072544 | 7 | 298 | 9.7 | 17.7 | 0.00 | 0.00 | 0.00 | 95 | 1018.0 |
| 20260508072043 | 7 | 302 | 12.9 | 16.1 | 0.00 | 0.00 | 0.00 | 95 | 1018.0 |
| 20260508071549 | 7 | 312 | 11.3 | 16.1 | 0.00 | 0.00 | 0.00 | 95 | 1018.0 |
| 20260508071043 | 7 | 303 | 9.7 | 17.7 | 0.00 | 0.00 | 0.00 | 95 | 1018.0 |
| 20260508070543 | 7 | 323 | 11.3 | 17.7 | 0.00 | 0.00 | 0.00 | 95 | 1018.1 |
| 20260508070053 | 7 | 311 | 11.3 | 19.3 | 0.00 | 0.00 | 0.00 | 95 | 1018.0 |
| 20260508065543 | 7 | 325 | 12.9 | 19.3 | 0.00 | 0.00 | 0.00 | 95 | 1017.9 |
| 20260508065043 | 7 | 303 | 14.5 | 19.3 | 0.00 | 0.00 | 0.00 | 95 | 1018.0 |
| 20260508064555 | 7 | 309 | 12.9 | 19.3 | 0.00 | 0.00 | 0.00 | 95 | 1018.1 |
| 20260508064043 | 7 | 300 | 14.5 | 20.9 | 0.00 | 0.00 | 0.00 | 95 | 1018.1 |
| 20260508063543 | 8 | 312 | 12.9 | 20.9 | 0.00 | 0.00 | 0.00 | 95 | 1018.0 |
| 20260508063059 | 8 | 317 | 11.3 | 19.3 | 0.00 | 0.00 | 0.00 | 95 | 1018.0 |
| 20260508062542 | 8 | 308 | 11.3 | 16.1 | 0.00 | 0.00 | 0.00 | 94 | 1018.0 |
| 20260508062043 | 8 | 319 | 12.9 | 16.1 | 0.00 | 0.00 | 0.00 | 94 | 1018.1 |
| 20260508061551 | 8 | 310 | 9.7 | 14.5 | 0.00 | 0.00 | 0.00 | 94 | 1018.0 |
| 20260508061043 | 8 | 319 | 6.4 | 14.5 | 0.00 | 0.00 | 0.00 | 94 | 1018.0 |
| 20260508060544 | 8 | 306 | 9.7 | 16.1 | 0.00 | 0.00 | 0.00 | 94 | 1018.1 |
| 20260508060048 | 8 | 311 | 11.3 | 16.1 | 0.00 | 0.00 | 0.00 | 94 | 1018.1 |
| 20260508055545 | 8 | 307 | 8.0 | 12.9 | 0.00 | 0.00 | 0.00 | 94 | 1018.0 |
| 20260508055043 | 8 | 309 | 4.8 | 9.7 | 0.00 | 0.00 | 0.00 | 94 | 1018.0 |
| 20260508054553 | 8 | 324 | 6.4 | 9.7 | 0.00 | 0.00 | 0.00 | 94 | 1017.9 |
| 20260508054044 | 8 | 315 | 4.8 | 8.0 | 0.00 | 0.00 | 0.00 | 93 | 1017.9 |
| 20260508053543 | 8 | 315 | 4.8 | 9.7 | 0.00 | 0.00 | 0.00 | 94 | 1018.1 |
| 20260508053101 | 8 | 310 | 6.4 | 14.5 | 0.00 | 0.00 | 0.00 | 94 | 1017.9 |
| 20260508052543 | 8 | 320 | 8.0 | 14.5 | 0.00 | 0.00 | 0.00 | 94 | 1018.0 |
| 20260508052042 | 8 | 317 | 9.7 | 14.5 | 0.00 | 0.00 | 0.00 | 94 | 1018.0 |
| 20260508051549 | 8 | 306 | 8.0 | 12.9 | 0.00 | 0.00 | 0.00 | 94 | 1018.0 |
| 20260508051045 | 8 | 308 | 4.8 | 11.3 | 0.00 | 0.00 | 0.00 | 94 | 1017.9 |
| 20260508050543 | 8 | 315 | 4.8 | 11.3 | 0.00 | 0.00 | 0.00 | 94 | 1017.9 |
| 20260508050053 | 8 | 311 | 4.8 | 11.3 | 0.00 | 0.00 | 0.00 | 94 | 1017.8 |
| 20260508045542 | 8 | 312 | 4.8 | 11.3 | 0.00 | 0.00 | 0.00 | 94 | 1018.0 |
| 20260508045044 | 8 | 304 | 4.8 | 8.0 | 0.00 | 0.00 | 0.00 | 94 | 1017.9 |
| 20260508044549 | 8 | 307 | 4.8 | 8.0 | 0.00 | 0.00 | 0.00 | 93 | 1017.9 |
| 20260508044045 | 8 | 311 | 4.8 | 8.0 | 0.00 | 0.00 | 0.00 | 93 | 1017.9 |
| 20260508043543 | 8 | 307 | 4.8 | 8.0 | 0.00 | 0.00 | 0.00 | 93 | 1017.8 |
| 20260508043053 | 9 | 300 | 4.8 | 12.9 | 0.00 | 0.00 | 0.00 | 92 | 1017.9 |
| 20260508042542 | 9 | 304 | 4.8 | 12.9 | 0.00 | 0.00 | 0.00 | 92 | 1017.8 |
| 20260508042043 | 9 | 299 | 4.8 | 11.3 | 0.00 | 0.00 | 0.00 | 91 | 1017.9 |
| 20260508041548 | 9 | 311 | 6.4 | 11.3 | 0.00 | 0.00 | 0.00 | 90 | 1017.7 |
| 20260508041046 | 10 | 319 | 6.4 | 11.3 | 0.00 | 0.00 | 0.00 | 89 | 1017.6 |
| 20260508040543 | 10 | 304 | 4.8 | 8.0 | 0.00 | 0.00 | 0.00 | 86 | 1017.6 |
| 20260508040052 | 11 | 313 | 4.8 | 8.0 | 0.00 | 0.00 | 0.00 | 82 | 1017.6 |
| 20260508035543 | 12 | 318 | 6.4 | 12.9 | 0.00 | 0.00 | 0.00 | 79 | 1017.6 |
| 20260508035043 | 13 | 315 | 6.4 | 12.9 | 0.00 | 0.00 | 0.00 | 75 | 1017.6 |
| 20260508034552 | 15 | 312 | 8.0 | 12.9 | 0.00 | 0.00 | 0.00 | 69 | 1017.5 |
| 20260508034043 | 15 | 317 | 4.8 | 12.9 | 0.00 | 0.00 | 0.00 | 66 | 1017.5 |
| 20260508033543 | 14 | 318 | 8.0 | 12.9 | 0.00 | 0.00 | 0.00 | 67 | 1017.5 |
| 20260508033058 | 13 | 306 | 8.0 | 12.9 | 0.00 | 0.00 | 0.00 | 68 | 1017.5 |
| 20260508032544 | 13 | 321 | 6.4 | 9.7 | 0.00 | 0.00 | 0.00 | 75 | 1017.4 |
| 20260508032043 | 12 | 316 | 8.0 | 9.7 | 0.00 | 0.00 | 0.00 | 80 | 1017.4 |
| 20260508031546 | 12 | 318 | 6.4 | 9.7 | 0.00 | 0.00 | 0.00 | 81 | 1017.3 |
| 20260508031041 | 11 | 318 | 6.4 | 9.7 | 0.00 | 0.00 | 0.00 | 90 | 1017.3 |
| 20260508030540 | 11 | 317 | 4.8 | 9.7 | 0.00 | 0.00 | 0.00 | 90 | 1017.3 |
| 20260508030048 | 11 | 317 | 6.4 | 8.0 | 0.00 | 0.00 | 0.00 | 90 | 1017.2 |
| 20260508025542 | 11 | 319 | 3.2 | 6.4 | 0.00 | 0.00 | 0.00 | 89 | 1017.3 |
| 20260508025041 | 11 | 318 | 3.2 | 6.4 | 0.00 | 0.00 | 0.00 | 88 | 1017.2 |
| 20260508024557 | 12 | 318 | 3.2 | 6.4 | 0.00 | 0.00 | 0.00 | 88 | 1017.2 |
| 20260508024043 | 12 | 310 | 3.2 | 6.4 | 0.00 | 0.00 | 0.00 | 87 | 1017.2 |
| 20260508023541 | 12 | 310 | 1.6 | 6.4 | 0.00 | 0.00 | 0.00 | 87 | 1017.2 |
| 20260508023050 | 12 | 310 | 3.2 | 8.0 | 0.00 | 0.00 | 0.00 | 87 | 1017.3 |
| 20260508022540 | 12 | 310 | 3.2 | 8.0 | 0.00 | 0.00 | 0.00 | 86 | 1017.2 |
| 20260508022041 | 12 | 311 | 4.8 | 8.0 | 0.00 | 0.00 | 0.00 | 85 | 1017.2 |
| 20260508021550 | 13 | 311 | 4.8 | 8.0 | 0.00 | 0.00 | 0.00 | 85 | 1017.2 |
| 20260508021040 | 13 | 312 | 4.8 | 8.0 | 0.00 | 0.00 | 0.00 | 84 | 1017.2 |
| 20260508020547 | 13 | 316 | 4.8 | 8.0 | 0.00 | 0.00 | 0.00 | 84 | 1017.2 |
| 20260508020050 | 13 | 319 | 4.8 | 8.0 | 0.00 | 0.00 | 0.00 | 84 | 1017.3 |
| 20260508015545 | 13 | 312 | 4.8 | 12.9 | 0.00 | 0.00 | 0.00 | 83 | 1017.3 |
| 20260508015044 | 13 | 306 | 4.8 | 12.9 | 0.00 | 0.00 | 0.00 | 83 | 1017.3 |
| 20260508014600 | 13 | 314 | 8.0 | 12.9 | 0.00 | 0.00 | 0.00 | 83 | 1017.3 |
| 20260508014047 | 13 | 312 | 9.7 | 12.9 | 0.00 | 0.00 | 0.00 | 82 | 1017.3 |
| 20260508013545 | 13 | 318 | 8.0 | 12.9 | 0.00 | 0.00 | 0.00 | 82 | 1017.2 |
| 20260508013056 | 13 | 317 | 6.4 | 12.9 | 0.00 | 0.00 | 0.00 | 81 | 1017.3 |
| 20260508012550 | 14 | 319 | 6.4 | 14.5 | 0.00 | 0.00 | 0.00 | 82 | 1017.3 |
| 20260508012045 | 14 | 306 | 8.0 | 14.5 | 0.00 | 0.00 | 0.00 | 81 | 1017.4 |
| 20260508011608 | 14 | 310 | 8.0 | 12.9 | 0.00 | 0.00 | 0.00 | 81 | 1017.4 |
| 20260508011044 | 15 | 309 | 6.4 | 14.5 | 0.00 | 0.00 | 0.00 | 80 | 1017.4 |
| 20260508010544 | 15 | 310 | 8.0 | 16.1 | 0.00 | 0.00 | 0.00 | 80 | 1017.4 |
| 20260508010050 | 15 | 316 | 11.3 | 16.1 | 0.00 | 0.00 | 0.00 | 80 | 1017.5 |
| 20260508005546 | 15 | 309 | 9.7 | 16.1 | 0.00 | 0.00 | 0.00 | 79 | 1017.5 |
| 20260508005044 | 15 | 314 | 9.7 | 16.1 | 0.00 | 0.00 | 0.00 | 78 | 1017.4 |
| 20260508004556 | 15 | 313 | 11.3 | 16.1 | 0.00 | 0.00 | 0.00 | 78 | 1017.7 |
| 20260508004043 | 16 | 300 | 9.7 | 16.1 | 0.00 | 0.00 | 0.00 | 78 | 1017.7 |
| 20260508003544 | 16 | 304 | 11.3 | 16.1 | 0.00 | 0.00 | 0.00 | 78 | 1017.7 |
| 20260508003051 | 16 | 309 | 11.3 | 16.1 | 0.00 | 0.00 | 0.00 | 78 | 1017.7 |
| 20260508002545 | 16 | 311 | 9.7 | 16.1 | 0.00 | 0.00 | 0.00 | 77 | 1017.7 |
| 20260508002045 | 16 | 301 | 9.7 | 16.1 | 0.00 | 0.00 | 0.00 | 76 | 1017.6 |
| 20260508001553 | 16 | 320 | 9.7 | 16.1 | 0.00 | 0.00 | 0.00 | 76 | 1017.6 |
| 20260508001044 | 17 | 300 | 9.7 | 16.1 | 0.00 | 0.00 | 0.00 | 74 | 1017.7 |
| 20260508000546 | 17 | 311 | 8.0 | 14.5 | 0.00 | 0.00 | 0.00 | 75 | 1017.6 |
| 20260508000052 | 17 | 294 | 6.4 | 16.1 | 0.00 | 0.00 | 0.00 | 74 | 1017.6 |
| 20260507235545 | 17 | 299 | 6.4 | 16.1 | 0.00 | 0.00 | 0.00 | 73 | 1017.6 |
| 20260507235045 | 18 | 284 | 6.4 | 16.1 | 0.00 | 0.00 | 0.00 | 71 | 1017.6 |
| 20260507234553 | 18 | 302 | 9.7 | 17.7 | 0.00 | 0.00 | 0.00 | 70 | 1017.6 |
| 20260507234045 | 19 | 309 | 8.0 | 17.7 | 0.00 | 0.00 | 0.00 | 69 | 1017.7 |
| 20260507233545 | 19 | 303 | 9.7 | 17.7 | 0.00 | 0.00 | 0.00 | 68 | 1017.7 |
| 20260507233056 | 20 | 288 | 8.0 | 16.1 | 0.00 | 0.00 | 0.00 | 67 | 1017.8 |
| 20260507232544 | 20 | 309 | 6.4 | 14.5 | 0.00 | 0.00 | 0.00 | 66 | 1017.7 |
| 20260507232045 | 20 | 300 | 6.4 | 12.9 | 0.00 | 0.00 | 0.00 | 65 | 1017.7 |
| 20260507231555 | 21 | 296 | 6.4 | 12.9 | 0.00 | 0.00 | 0.00 | 66 | 1017.7 |
| 20260507231046 | 21 | 296 | 6.4 | 12.9 | 0.00 | 0.00 | 0.00 | 64 | 1017.8 |
| 20260507230546 | 21 | 293 | 6.4 | 12.9 | 0.00 | 0.00 | 0.00 | 65 | 1017.8 |
| 20260507230051 | 21 | 297 | 6.4 | 12.9 | 0.00 | 0.00 | 0.00 | 63 | 1017.8 |
| 20260507225543 | 21 | 305 | 4.8 | 12.9 | 0.00 | 0.00 | 0.00 | 63 | 1017.8 |
| 20260507225045 | 21 | 302 | 4.8 | 11.3 | 0.00 | 0.00 | 0.00 | 63 | 1017.9 |
| 20260507224550 | 21 | 298 | 4.8 | 11.3 | 0.00 | 0.00 | 0.00 | 63 | 1017.8 |
| 20260507224101 | 21 | 304 | 3.2 | 12.9 | 0.00 | 0.00 | 0.00 | 59 | 1017.8 |
| 20260507223544 | 21 | 293 | 4.8 | 12.9 | 0.00 | 0.00 | 0.00 | 62 | 1017.8 |
| 20260507223058 | 21 | 302 | 4.8 | 11.3 | 0.00 | 0.00 | 0.00 | 65 | 1017.9 |
| 20260507222545 | 21 | 294 | 4.8 | 11.3 | 0.00 | 0.00 | 0.00 | 66 | 1017.8 |
| 20260507222047 | 21 | 296 | 4.8 | 8.0 | 0.00 | 0.00 | 0.00 | 65 | 1018.0 |
| 20260507221556 | 21 | 292 | 4.8 | 9.7 | 0.00 | 0.00 | 0.00 | 65 | 1018.0 |
| 20260507221044 | 21 | 296 | 4.8 | 11.3 | 0.00 | 0.00 | 0.00 | 65 | 1018.0 |
| 20260507220543 | 21 | 292 | 4.8 | 12.9 | 0.00 | 0.00 | 0.00 | 67 | 1018.1 |
| 20260507220059 | 21 | 291 | 6.4 | 14.5 | 0.00 | 0.00 | 0.00 | 68 | 1018.1 |
| 20260507215545 | 21 | 295 | 6.4 | 14.5 | 0.00 | 0.00 | 0.00 | 68 | 1018.0 |
| 20260507215045 | 21 | 295 | 6.4 | 12.9 | 0.00 | 0.00 | 0.00 | 67 | 1018.1 |
| 20260507214556 | 21 | 289 | 6.4 | 12.9 | 0.00 | 0.00 | 0.00 | 68 | 1018.2 |
| 20260507214045 | 21 | 319 | 6.4 | 11.3 | 0.00 | 0.00 | 0.00 | 67 | 1018.1 |
| 20260507213548 | 21 | 292 | 4.8 | 11.3 | 0.00 | 0.00 | 0.00 | 67 | 1018.2 |
| 20260507213056 | 21 | 301 | 4.8 | 11.3 | 0.00 | 0.00 | 0.00 | 68 | 1018.3 |
| 20260507212546 | 21 | 315 | 6.4 | 11.3 | 0.00 | 0.00 | 0.00 | 68 | 1018.4 |
| 20260507212044 | 21 | 309 | 4.8 | 12.9 | 0.00 | 0.00 | 0.00 | 69 | 1018.4 |
| 20260507211553 | 21 | 315 | 6.4 | 12.9 | 0.00 | 0.00 | 0.00 | 68 | 1018.5 |
| 20260507211043 | 21 | 293 | 6.4 | 11.3 | 0.00 | 0.00 | 0.00 | 69 | 1018.6 |
| 20260507210544 | 21 | 307 | 4.8 | 11.3 | 0.00 | 0.00 | 0.00 | 70 | 1018.6 |
| 20260507210058 | 20 | 294 | 3.2 | 11.3 | 0.00 | 0.00 | 0.00 | 69 | 1018.6 |
| 20260507205544 | 20 | 291 | 4.8 | 11.3 | 0.00 | 0.00 | 0.00 | 70 | 1018.6 |
| 20260507205044 | 20 | 307 | 3.2 | 11.3 | 0.00 | 0.00 | 0.00 | 69 | 1018.7 |
| 20260507204552 | 20 | 316 | 3.2 | 11.3 | 0.00 | 0.00 | 0.00 | 71 | 1018.7 |
| 20260507204043 | 20 | 322 | 6.4 | 11.3 | 0.00 | 0.00 | 0.00 | 70 | 1018.7 |
| 20260507203544 | 20 | 306 | 4.8 | 11.3 | 0.00 | 0.00 | 0.00 | 73 | 1018.8 |
| 20260507203048 | 20 | 312 | 4.8 | 11.3 | 0.00 | 0.00 | 0.00 | 71 | 1018.8 |
| 20260507202542 | 20 | 321 | 4.8 | 11.3 | 0.00 | 0.00 | 0.00 | 72 | 1018.8 |
| 20260507202044 | 20 | 298 | 3.2 | 8.0 | 0.00 | 0.00 | 0.00 | 73 | 1018.8 |
| 20260507201607 | 19 | 317 | 4.8 | 8.0 | 0.00 | 0.00 | 0.00 | 73 | 1018.9 |
| 20260507201047 | 19 | 313 | 3.2 | 8.0 | 0.00 | 0.00 | 0.00 | 74 | 1018.9 |
| 20260507200546 | 19 | 316 | 4.8 | 9.7 | 0.00 | 0.00 | 0.00 | 73 | 1018.8 |
| 20260507200058 | 18 | 326 | 4.8 | 9.7 | 0.00 | 0.00 | 0.00 | 73 | 1018.8 |
| 20260507195545 | 18 | 309 | 4.8 | 9.7 | 0.00 | 0.00 | 0.00 | 74 | 1018.8 |
| 20260507195046 | 18 | 313 | 3.2 | 8.0 | 0.00 | 0.00 | 0.00 | 76 | 1018.9 |
| 20260507194557 | 18 | 322 | 3.2 | 8.0 | 0.00 | 0.00 | 0.00 | 76 | 1018.8 |
| 20260507194043 | 18 | 315 | 3.2 | 8.0 | 0.00 | 0.00 | 0.00 | 77 | 1018.8 |
| 20260507193543 | 18 | 315 | 3.2 | 8.0 | 0.00 | 0.00 | 0.00 | 76 | 1018.9 |
| 20260507193056 | 18 | 315 | 3.2 | 8.0 | 0.00 | 0.00 | 0.00 | 77 | 1019.0 |
| 20260507192547 | 17 | 317 | 3.2 | 8.0 | 0.00 | 0.00 | 0.00 | 77 | 1019.0 |
| 20260507192040 | 17 | 316 | 3.2 | 8.0 | 0.00 | 0.00 | 0.00 | 78 | 1019.1 |
| 20260507191548 | 17 | 316 | 3.2 | 8.0 | 0.00 | 0.00 | 0.00 | 78 | 1019.2 |
| 20260507191043 | 17 | 316 | 3.2 | 8.0 | 0.00 | 0.00 | 0.00 | 78 | 1019.1 |
| 20260507190543 | 17 | 317 | 4.8 | 8.0 | 0.00 | 0.00 | 0.00 | 78 | 1019.1 |
| 20260507190056 | 17 | 302 | 3.2 | 8.0 | 0.00 | 0.00 | 0.00 | 79 | 1019.2 |
| 20260507185543 | 17 | 303 | 3.2 | 8.0 | 0.00 | 0.00 | 0.00 | 79 | 1019.2 |
| 20260507185044 | 16 | 299 | 4.8 | 8.0 | 0.00 | 0.00 | 0.00 | 79 | 1019.2 |
| 20260507184601 | 16 | 313 | 3.2 | 8.0 | 0.00 | 0.00 | 0.00 | 79 | 1019.3 |
| 20260507184044 | 16 | 313 | 4.8 | 8.0 | 0.00 | 0.00 | 0.00 | 80 | 1019.3 |
| 20260507183548 | 16 | 315 | 0.0 | 6.4 | 0.00 | 0.00 | 0.00 | 80 | 1019.4 |
| 20260507183053 | 16 | 0 | 1.6 | 6.4 | 0.00 | 0.00 | 0.00 | 80 | 1019.3 |
| 20260507182545 | 16 | 323 | 3.2 | 6.4 | 0.00 | 0.00 | 0.00 | 80 | 1019.4 |
| 20260507182044 | 16 | 323 | 3.2 | 6.4 | 0.00 | 0.00 | 0.00 | 80 | 1019.3 |
| 20260507181549 | 16 | 309 | 1.6 | 6.4 | 0.00 | 0.00 | 0.00 | 81 | 1019.2 |
| 20260507181044 | 15 | 309 | 1.6 | 6.4 | 0.00 | 0.00 | 0.00 | 81 | 1019.1 |
| 20260507180545 | 15 | 329 | 1.6 | 6.4 | 0.00 | 0.00 | 0.00 | 82 | 1019.1 |
| 20260507180056 | 15 | 315 | 1.6 | 6.4 | 0.00 | 0.00 | 0.00 | 82 | 1019.1 |
| 20260507175543 | 15 | 313 | 0.0 | 6.4 | 0.00 | 0.00 | 0.00 | 82 | 1019.2 |
| 20260507175043 | 15 | 320 | 3.2 | 6.4 | 0.00 | 0.00 | 0.00 | 81 | 1019.2 |
| 20260507174604 | 15 | 327 | 3.2 | 8.0 | 0.00 | 0.00 | 0.00 | 81 | 1019.1 |
| 20260507174044 | 15 | 330 | 3.2 | 8.0 | 0.00 | 0.00 | 0.00 | 82 | 1019.1 |
| 20260507173544 | 15 | 330 | 3.2 | 6.4 | 0.00 | 0.00 | 0.00 | 81 | 1019.1 |
| 20260507173059 | 15 | 331 | 3.2 | 6.4 | 0.00 | 0.00 | 0.00 | 80 | 1019.1 |
| 20260507172547 | 16 | 0 | 0.0 | 1.6 | 0.00 | 0.00 | 0.00 | 80 | 1018.9 |
| 20260507172047 | 16 | 0 | 0.0 | 0.0 | 0.00 | 0.00 | 0.00 | 78 | 1018.9 |
| 20260507171602 | 16 | 0 | 0.0 | 0.0 | 0.00 | 0.00 | 0.00 | 78 | 1018.9 |
| 20260507171045 | 16 | 0 | 0.0 | 0.0 | 0.00 | 0.00 | 0.00 | 77 | 1018.9 |
| 20260507170544 | 16 | 0 | 0.0 | 0.0 | 0.00 | 0.00 | 0.00 | 76 | 1018.8 |
| 20260507170052 | 17 | 0 | 0.0 | 0.0 | 0.00 | 0.00 | 0.00 | 75 | 1018.9 |
| 20260507165543 | 17 | 0 | 0.0 | 0.0 | 0.00 | 0.00 | 0.00 | 75 | 1018.9 |
| 20260507165043 | 17 | 0 | 0.0 | 0.0 | 0.00 | 0.00 | 0.00 | 75 | 1018.9 |
| 20260507164552 | 17 | 0 | 0.0 | 0.0 | 0.00 | 0.00 | 0.00 | 76 | 1018.9 |
| 20260507164043 | 17 | 0 | 0.0 | 0.0 | 0.00 | 0.00 | 0.00 | 75 | 1018.8 |
| 20260507163544 | 17 | 0 | 0.0 | 0.0 | 0.00 | 0.00 | 0.00 | 75 | 1018.9 |
| 20260507163101 | 17 | 0 | 0.0 | 0.0 | 0.00 | 0.00 | 0.00 | 74 | 1018.9 |
| 20260507162543 | 17 | 0 | 0.0 | 0.0 | 0.00 | 0.00 | 0.00 | 74 | 1019.0 |
| 20260507162043 | 17 | 0 | 0.0 | 0.0 | 0.00 | 0.00 | 0.00 | 73 | 1019.0 |
| 20260507161555 | 17 | 0 | 0.0 | 0.0 | 0.00 | 0.00 | 0.00 | 73 | 1019.0 |
| 20260507161044 | 17 | 0 | 0.0 | 0.0 | 0.00 | 0.00 | 0.00 | 72 | 1018.9 |
| 20260507160543 | 17 | 0 | 0.0 | 0.0 | 0.00 | 0.00 | 0.00 | 72 | 1018.9 |
| 20260507160055 | 17 | 0 | 0.0 | 0.0 | 0.00 | 0.00 | 0.00 | 72 | 1018.8 |
| 20260507155543 | 17 | 0 | 0.0 | 0.0 | 0.00 | 0.00 | 0.00 | 75 | 1018.9 |
| 20260507155043 | 17 | 0 | 0.0 | 0.0 | 0.00 | 0.00 | 0.00 | 75 | 1018.9 |
| 20260507154554 | 17 | 0 | 0.0 | 0.0 | 0.00 | 0.00 | 0.00 | 75 | 1018.9 |
| 20260507154044 | 17 | 0 | 0.0 | 0.0 | 0.00 | 0.00 | 0.00 | 74 | 1018.9 |
| 20260507153543 | 17 | 0 | 0.0 | 0.0 | 0.00 | 0.00 | 0.00 | 74 | 1018.9 |
| 20260507153051 | 17 | 0 | 0.0 | 0.0 | 0.00 | 0.00 | 0.00 | 74 | 1018.8 |
| 20260507152543 | 16 | 0 | 0.0 | 0.0 | 0.00 | 0.00 | 0.00 | 75 | 1018.7 |
| 20260507152044 | 16 | 0 | 0.0 | 0.0 | 0.00 | 0.00 | 0.00 | 76 | 1018.9 |
| 20260507151555 | 16 | 0 | 0.0 | 0.0 | 0.00 | 0.00 | 0.00 | 76 | 1018.8 |
| 20260507151043 | 16 | 0 | 0.0 | 0.0 | 0.00 | 0.00 | 0.00 | 77 | 1018.8 |
| 20260507150544 | 16 | 0 | 0.0 | 0.0 | 0.00 | 0.00 | 0.00 | 78 | 1018.8 |
| 20260507150054 | 16 | 0 | 0.0 | 0.0 | 0.00 | 0.00 | 0.00 | 79 | 1018.8 |
| 20260507145544 | 15 | 0 | 0.0 | 0.0 | 0.00 | 0.00 | 0.00 | 80 | 1018.7 |
| 20260507145043 | 15 | 0 | 0.0 | 0.0 | 0.00 | 0.00 | 0.00 | 80 | 1018.8 |
| 20260507144610 | 15 | 0 | 0.0 | 0.0 | 0.00 | 0.00 | 0.00 | 81 | 1018.8 |
| 20260507144044 | 14 | 0 | 0.0 | 0.0 | 0.00 | 0.00 | 0.00 | 81 | 1018.7 |
| 20260507143544 | 14 | 0 | 0.0 | 0.0 | 0.00 | 0.00 | 0.00 | 80 | 1018.7 |
| 20260507143055 | 13 | 0 | 0.0 | 0.0 | 0.00 | 0.00 | 0.00 | 81 | 1018.8 |
| 20260507142543 | 13 | 0 | 0.0 | 0.0 | 0.00 | 0.00 | 0.00 | 81 | 1018.7 |
| 20260507142043 | 13 | 0 | 0.0 | 3.2 | 0.00 | 0.00 | 0.00 | 81 | 1018.7 |
| 20260507141622 | 13 | 0 | 0.0 | 3.2 | 0.00 | 0.00 | 0.00 | 81 | 1018.6 |